Location: Newark
(45.5000°N, 11.4167°E)
Time: 23:11:28
(UTC+00:00)

Altair - Pass Details

Date: 03 September 2019
Orbit: 1501 x 1682 km, 47.2° (Epoch: 22 October)

Event Time Altitude Azimuth Distance (km) Brightness Sun altitude
Exits shadow 02:26:26 17° 277° (W) 3,338 8.9 -21.6°
Maximum altitude 02:34:37 81° 4° (N) 1,614 7.6 -20.5°
Drops below altitude 10° 02:44:09 10° 93° (E) 3,732 10.3 -19.1°
Sets 02:47:10 0° 94° (E) 4,694 10.9 -18.6°
